GFSFLT2_850_temp_000.txt.gz
Temp
16 16 16 16 15 15 15 15 14 14 14 14 14 14 14 14 15 15 15 14 13 13 13 13 13 12 11 13 12 12 12 13
16 15 15 15 14 14 14 14 14 14 13 13 13 13 13 13 12 13 13 14 13 12 12 12 12 13 12 12 12 12 11 12
15 15 15 14 14 14 14 14 13 13 13 13 13 12 13 12 11 11 11 11 12 12 12 11 12 12 12 12 12 11 10 11
15 15 14 13 13 14 13 12 12 12 12 13 13 13 13 12 12 10 10 10 10 10 11 11 11 11 12 12 12 12 11 10
14 14 13 13 13 13 12 13 13 13 13 13 13 13 13 13 13 11 10 9 9 9 10 10 11 11 11 11 11 11 12 12
13 13 12 13 13 13 13 13 13 13 13 13 13 13 13 12 12 9 9 9 9 9 8 10 9 11 12 12 12 11 12 11
13 13 12 13 13 13 13 14 13 13 13 13 13 12 13 12 11 11 11 9 10 10 10 10 9 10 11 11 10 11 11 12
12 12 12 12 12 13 13 13 13 13 13 13 12 12 12 11 11 10 10 9 10 10 10 10 10 10 10 10 10 9 9 9
12 12 12 12 12 12 12 12 12 12 12 11 11 11 10 10 10 10 9 9 9 9 9 9 10 10 10 9 9 9 9 9
12 12 12 12 12 12 12 12 11 10 10 10 10 10 9 8 8 9 8 8 9 8 8 9 9 9 9 9 8 8 9 10
12 12 12 11 11 11 11 11 9 9 9 8 8 9 9 8 8 7 8 8 8 8 8 8 8 8 8 9 8 9 9 8
11 11 11 10 10 10 9 8 8 7 7 7 7 7 7 7 6 7 6 5 6 7 7 6 6 6 8 9 9 9 9 8
10 10 10 10 8 7 8 7 7 6 7 7 6 5 5 5 6 5 5 5 4 4 4 5 5 4 6 6 8 8 9 8
9 8 9 9 8 8 8 7 7 7 6 5 5 5 5 5 5 5 5 5 5 4 4 4 5 4 4 5 6 8 8 8
8 8 8 8 8 8 7 7 7 6 7 6 6 5 5 4 4 4 4 4 4 4 4 4 4 5 4 4 5 6 4 7
8 8 8 8 8 7 8 8 8 8 6 6 6 5 5 4 4 4 3 4 4 4 4 4 4 4 5 4 3 3 4 5
9 8 7 7 7 8 6 6 6 6 5 5 5 5 5 4 4 3 3 3 3 3 3 3 3 3 4 4 4 4 3 3
9 8 7 6 7 7 7 6 6 5 5 4 4 4 4 3 3 2 2 2 2 2 2 2 2 3 3 3 3 3 4 4
9 8 7 6 6 6 6 6 4 4 3 3 3 2 2 2 1 1 1 1 1 1 1 1 1 2 2 2 3 3 2 2
7 7 7 6 6 6 5 5 3 2 3 3 2 2 1 1 1 1 0 -0 -0 -0 0 0 1 1 1 2 2 2 2 2

GFSFLT2_850_temp_006.txt.gz
Temp
15 15 15 14 14 14 14 14 15 15 15 15 14 14 15 15 15 15 15 15 14 12 12 12 12 13 14 13 13 14 14 14
16 16 15 14 14 14 14 14 14 14 14 14 14 13 14 13 13 13 13 14 13 12 12 12 11 11 12 13 13 13 13 14
15 15 14 13 14 14 13 13 13 13 13 14 13 12 13 12 13 12 12 12 12 12 12 12 11 11 11 11 12 13 13 13
14 15 15 15 14 14 13 13 12 12 12 12 11 11 11 12 12 11 12 12 12 11 11 11 11 11 10 10 10 11 11 11
14 15 15 14 13 14 13 13 13 12 11 11 12 12 13 12 12 11 12 12 12 12 12 13 11 10 10 10 10 10 10 11
15 16 16 15 13 13 13 12 12 11 13 13 13 13 13 13 13 13 13 13 12 13 13 12 11 10 11 10 10 9 10 10
14 16 15 15 13 14 13 13 13 13 13 13 12 11 12 12 13 12 12 12 11 11 11 11 10 10 11 10 10 10 11 11
14 14 14 14 12 13 14 13 13 12 12 13 12 12 11 10 9 10 10 11 10 9 9 9 9 10 9 9 9 10 9 10
13 13 13 13 12 13 12 11 10 10 11 12 12 12 12 11 10 9 8 10 10 10 10 9 9 9 9 9 9 9 9 9
13 13 12 13 12 11 11 11 10 10 9 11 11 11 11 10 9 8 9 7 7 8 9 9 9 9 9 9 9 9 9 9
13 13 12 12 11 11 11 10 10 10 9 9 10 10 10 9 8 8 8 7 6 7 7 7 7 8 7 7 8 9 9 9
13 12 12 11 11 11 10 10 10 10 9 9 9 8 9 9 7 7 7 7 6 6 6 6 5 6 6 6 7 7 8 9
12 12 11 11 10 10 10 10 9 9 9 9 8 8 8 8 7 7 7 7 6 6 6 5 5 5 6 6 6 7 7 8
12 12 11 11 10 10 10 10 10 10 9 9 8 8 7 7 7 7 6 6 6 6 6 5 5 5 5 5 5 5 7 6
12 12 12 11 11 10 10 10 10 10 9 9 8 8 7 7 7 6 6 6 5 5 5 5 5 5 5 5 5 5 5 5
13 12 12 11 11 11 10 10 10 9 10 9 9 8 7 6 6 6 6 5 5 5 5 5 5 4 4 4 4 4 4 4
13 12 12 11 11 11 10 10 9 9 9 9 8 8 7 7 6 5 5 5 5 5 4 4 4 3 3 3 3 4 4 4
13 12 12 11 11 11 10 10 9 8 8 8 8 7 6 6 5 5 5 4 4 4 3 3 3 3 3 3 3 3 3 3
13 12 12 11 11 10 10 10 9 8 7 7 6 6 5 5 4 4 4 3 3 2 2 2 2 2 2 1 1 2 2 2
13 12 12 12 11 11 10 9 8 7 6 5 5 5 4 3 2 2 2 2 2 1 1 1 1 0 0 0 1 1 1 2

GFSFLT2_850_temp_009.txt.gz
Temp
15 15 15 15 15 14 14 15 15 15 14 14 14 14 14 13 13 13 13 13 13 14 15 14 13 13 12 11 12 13 13 14
15 15 14 15 15 14 14 14 13 13 14 13 14 14 14 14 13 12 11 11 12 12 13 13 13 12 11 11 12 12 12 13
16 15 15 15 14 14 14 13 13 13 13 13 13 13 13 13 13 12 11 11 11 12 11 11 12 12 12 12 12 12 11 12
17 17 16 15 13 14 13 13 13 13 14 13 13 13 14 14 14 13 13 12 12 12 12 11 11 11 12 12 12 12 12 11
17 17 16 15 13 13 13 13 13 12 13 13 12 12 13 14 14 14 13 12 12 11 11 12 11 10 10 10 10 10 12 12
17 16 16 15 14 14 13 13 13 14 14 13 13 14 14 13 13 13 13 13 13 12 11 11 11 11 10 10 10 10 11 11
15 16 16 15 14 14 13 13 13 13 13 13 13 13 12 12 12 12 12 12 12 12 12 11 11 10 10 10 9 10 10 10
15 15 15 15 15 14 13 13 13 12 13 13 12 12 11 12 11 11 11 11 10 10 10 10 10 10 10 9 9 9 9 9
15 15 14 14 13 14 13 13 13 13 13 13 12 12 11 11 11 11 11 10 10 10 9 9 9 9 8 9 9 9 9 9
15 15 14 13 13 13 12 12 12 12 12 12 11 12 11 10 10 10 9 10 10 9 9 9 8 8 9 8 8 8 8 8
15 14 13 13 12 11 11 11 11 11 10 11 11 11 11 10 9 9 8 8 8 8 8 8 8 7 7 7 7 7 8 8
15 14 13 12 12 11 11 11 10 10 10 9 10 10 10 9 8 8 7 7 7 7 7 7 6 6 6 6 5 6 7 7
15 14 13 12 12 11 11 11 11 10 10 9 9 9 9 9 8 7 7 7 6 6 6 6 6 6 5 5 5 6 5 6
15 14 13 12 12 11 11 11 10 10 10 9 9 9 9 8 8 7 7 7 6 6 6 6 5 5 5 5 5 5 5 5
15 14 13 12 12 11 11 10 10 10 10 9 9 9 9 8 7 7 6 6 6 6 5 5 5 5 5 5 4 4 4 4
14 14 13 13 12 11 11 11 11 10 10 10 9 9 8 8 7 7 6 6 5 5 5 5 4 4 4 4 4 4 3 3
14 13 13 13 13 11 11 11 11 11 10 9 9 8 8 7 7 6 6 5 5 4 4 5 4 4 3 3 3 3 3 3
14 13 13 13 12 12 12 11 11 10 10 9 9 8 7 7 6 6 5 5 4 4 3 3 3 3 2 2 2 2 2 1
13 12 12 12 11 11 11 11 11 10 10 9 8 8 6 6 5 4 4 4 3 2 1 1 1 2 2 1 1 1 1 1
12 12 12 12 12 11 11 10 10 10 10 9 7 6 5 4 4 3 2 2 1 1 -1 0 1 1 -0 -0 -0 -0 -0 -0

GFSFLT2_850_temp_012.txt.gz
Temp
15 14 14 15 15 15 15 15 15 15 15 15 15 15 15 14 14 14 14 14 14 14 13 13 13 13 13 14 14 14 13 12
15 14 14 14 15 15 14 14 14 14 14 15 15 15 15 15 15 15 14 14 13 13 13 12 12 12 12 13 14 14 14 13
15 15 15 15 14 14 14 14 14 14 14 14 14 14 14 14 14 14 13 12 12 12 12 12 11 11 11 11 12 12 13 13
15 16 16 15 14 13 13 13 14 14 14 14 14 14 14 14 13 13 13 12 12 11 11 11 11 11 11 11 11 11 11 12
17 17 16 15 14 13 13 13 13 13 13 13 13 13 13 12 13 13 13 12 12 12 11 11 11 10 10 10 11 10 10 11
17 16 16 14 14 13 13 12 13 13 12 12 12 12 12 13 13 13 12 12 13 12 12 12 11 10 10 10 9 9 10 10
17 16 15 15 13 13 13 13 13 13 13 13 13 13 13 13 13 13 13 12 12 12 12 12 12 11 11 10 10 9 9 10
17 16 15 15 14 13 12 12 12 12 12 12 12 12 12 12 12 12 12 12 12 11 11 11 11 11 11 10 10 9 8 8
17 16 15 15 14 14 13 13 12 12 12 12 12 12 12 11 11 11 11 10 10 10 10 10 10 10 10 10 9 8 9 9
16 16 15 15 15 14 13 13 12 12 12 12 12 12 11 11 10 9 9 9 9 10 9 9 9 9 9 9 9 9 8 8
16 15 15 15 14 13 13 12 12 11 12 11 11 11 10 10 10 9 8 8 8 9 8 8 8 8 8 8 8 8 8 8
16 15 15 14 13 13 12 12 11 11 11 11 11 10 10 9 9 9 8 8 8 8 8 7 7 7 7 6 7 7 7 7
16 15 15 14 13 13 12 12 11 11 10 10 10 10 10 9 9 8 8 8 7 7 7 6 6 6 5 5 6 6 5 6
16 15 15 14 14 14 13 12 11 11 11 10 10 9 9 9 9 9 8 7 7 6 6 6 6 5 5 5 5 5 4 4
15 15 14 14 13 13 12 12 11 11 11 11 10 10 9 9 9 8 8 7 7 6 6 6 5 5 5 4 4 4 4 3
15 14 14 13 13 12 12 11 11 11 11 11 10 10 9 9 8 8 7 7 6 6 5 5 5 4 4 4 3 3 2 2
14 14 14 13 13 12 12 12 11 11 11 11 10 10 9 9 8 7 7 6 6 5 4 3 3 3 3 3 2 2 2 2
14 13 12 12 12 12 11 11 11 11 11 11 10 10 9 9 8 7 6 6 5 4 3 2 2 2 2 2 1 1 1 0
13 12 12 12 12 11 11 11 10 10 10 10 10 9 9 8 7 6 5 4 4 3 2 0 -0 -0 -0 0 1 1 0 -0
12 12 12 11 11 11 11 10 9 9 9 9 9 7 6 6 5 4 4 3 3 0 -1 -1 -0 -2 -0 0 -0 -1 -1 -1

GFSFLT2_850_temp_015.txt.gz
Temp
17 16 16 16 16 16 15 15 15 15 15 15 15 14 14 14 14 14 14 14 13 13 13 13 13 14 13 13 12 12 13 13
16 16 17 17 16 15 14 14 14 14 14 15 15 15 15 14 14 14 13 13 12 12 12 12 12 13 12 12 12 12 12 12
16 16 16 16 15 14 13 13 13 13 14 14 14 13 13 13 13 13 13 13 12 12 12 12 11 11 11 11 12 12 11 12
15 15 16 16 14 14 13 13 12 13 13 13 13 13 13 13 13 13 13 13 12 11 11 11 11 11 11 11 11 11 11 11
16 15 16 16 15 13 13 12 13 13 13 13 13 13 13 14 14 14 14 13 13 12 12 12 11 12 11 12 11 11 11 11
16 16 16 16 15 14 13 13 13 13 13 13 13 13 13 13 13 13 13 13 13 13 13 12 12 12 11 11 11 10 10 9
17 17 16 16 16 15 14 13 13 12 12 12 12 12 13 13 12 12 13 13 12 12 12 12 11 11 10 10 10 10 10 10
17 17 16 16 15 15 14 13 12 12 11 11 11 11 12 12 12 11 11 11 11 11 11 11 11 11 11 10 10 10 10 9
17 17 16 15 15 14 14 13 12 12 11 11 11 11 11 11 11 11 11 10 10 10 10 10 10 10 10 9 9 9 9 9
17 16 16 15 15 14 14 13 13 13 12 12 11 11 11 11 11 10 10 10 10 9 9 9 9 9 9 9 9 8 8 8
17 16 15 15 15 14 14 13 13 12 12 12 11 11 11 10 10 10 10 9 9 9 9 9 9 8 9 8 8 8 8 7
16 16 15 14 14 14 14 13 13 12 12 12 11 11 10 10 10 9 9 9 9 9 8 8 8 8 8 8 8 8 8 7
16 15 15 14 14 14 13 13 13 12 12 12 11 11 11 10 10 9 9 9 9 8 8 8 8 7 7 7 6 7 7 7
15 15 15 14 14 13 13 13 13 12 12 11 11 11 11 11 10 10 9 9 9 8 8 8 7 6 6 5 5 6 6 7
15 15 15 14 13 13 13 12 12 12 12 12 11 11 11 10 10 10 9 9 8 8 8 7 7 6 6 5 4 4 5 5
15 15 14 14 13 12 12 12 11 11 11 11 11 11 10 10 10 9 9 8 8 7 7 6 6 5 5 4 3 3 2 2
15 14 14 13 12 12 12 12 11 11 11 10 10 10 10 10 9 9 9 8 7 6 6 5 4 4 3 2 2 2 1 1
13 13 12 12 12 12 11 11 11 11 10 10 9 10 10 9 9 8 8 7 6 5 4 3 3 2 1 -0 0 -1 -0 0
12 12 12 12 12 11 11 10 10 10 9 8 8 8 8 8 8 7 6 5 5 3 2 1 -0 0 -0 -1 -1 -1 -2 -2
11 11 11 11 10 10 10 9 9 8 7 7 7 7 7 6 5 4 3 2 0 -0 -1 -0 -0 -1 -0 -2 -1 -1 -1 -1

GFSFLT2_850_temp_021.txt.gz
Temp
16 16 16 16 16 16 15 15 15 14 14 14 14 14 14 14 13 13 13 13 13 13 13 13 13 13 12 12 12 12 12 12
16 16 16 16 16 16 15 15 14 14 14 14 14 14 14 14 14 13 13 13 13 13 12 12 12 12 12 12 12 11 11 11
16 16 16 16 16 16 15 15 15 14 14 14 14 14 14 13 13 14 14 14 13 13 12 12 12 12 12 12 11 11 11 11
16 16 16 16 16 16 15 15 14 14 14 14 13 13 13 13 13 13 13 13 13 13 12 12 12 12 12 12 12 12 11 11
16 16 16 16 15 15 15 15 14 14 14 14 13 13 13 13 12 12 12 13 12 12 12 12 12 12 12 12 12 12 12 12
16 16 16 16 15 15 14 14 14 14 13 13 13 12 12 12 12 12 12 12 12 12 12 12 11 11 11 11 11 11 11 11
15 15 16 16 15 15 14 14 13 13 13 13 12 12 12 12 12 11 12 12 11 12 12 11 11 11 11 11 11 10 11 11
16 16 16 16 15 15 14 14 13 13 13 12 12 12 11 11 11 11 11 11 11 11 11 11 11 11 10 10 10 10 10 10
16 15 16 16 15 14 14 14 13 13 12 12 12 12 11 11 11 11 11 11 11 10 10 10 10 10 10 10 10 10 9 9
16 15 16 15 15 14 14 14 13 13 13 12 12 12 11 11 11 11 10 10 10 10 10 10 10 10 10 9 9 9 9 9
16 16 16 15 14 14 14 14 13 13 13 12 12 12 12 11 11 11 11 10 10 10 10 10 10 9 9 9 9 9 9 9
16 16 15 15 15 14 14 13 13 13 12 12 12 11 11 11 11 11 11 11 11 10 10 10 9 9 9 9 9 8 8 9
16 16 15 15 14 14 13 13 13 13 12 12 11 11 11 10 10 10 10 10 10 10 10 9 9 9 8 8 8 8 8 7
16 15 15 14 13 13 13 12 13 13 12 12 12 11 11 11 10 10 10 10 9 9 9 9 9 9 8 6 7 7 7 7
15 14 13 13 12 12 12 12 12 12 12 11 11 10 10 10 10 10 10 9 9 9 9 8 8 8 8 7 7 7 7 7
13 13 12 12 11 11 10 10 10 10 10 10 10 10 9 9 8 8 8 8 8 9 8 8 7 6 6 7 7 7 6 6
11 11 11 11 10 10 10 10 10 9 9 9 9 9 9 9 8 7 7 7 7 7 7 7 6 5 4 5 5 5 3 3
11 11 11 11 11 10 10 10 10 9 9 9 9 8 8 7 7 7 6 6 6 6 5 4 3 2 2 2 2 3 2 0
11 11 11 11 10 10 9 9 8 7 6 6 6 5 6 6 5 5 5 5 4 3 1 0 -0 -0 0 -0 -0 -1 -1 -1
9 10 11 10 9 8 7 6 5 5 5 4 4 4 5 4 4 4 3 2 1 -0 -1 -1 -1 -1 -1 -1 -1 -1 -2 -2

GFSFLT2_850_temp_024.txt.gz
Temp
15 16 17 17 16 16 15 15 15 15 15 15 15 14 14 14 13 13 13 13 13 13 13 12 12 12 12 12 12 12 11 12
14 15 16 16 16 15 15 15 14 14 14 14 14 14 14 13 13 13 13 13 13 13 12 12 12 12 12 12 12 12 11 11
16 15 16 16 15 15 15 15 15 14 14 14 14 11 12 11 13 13 13 13 13 13 13 13 13 13 12 12 12 11 10 11
16 16 16 16 15 15 15 14 13 13 13 14 12 13 13 13 13 13 13 13 13 13 13 13 13 11 11 13 10 12 11 10
15 16 16 15 13 13 13 13 12 12 14 13 13 13 11 11 11 11 10 12 11 12 12 11 12 12 11 12 12 12 10 10
15 16 16 16 15 14 13 13 12 12 12 13 11 11 11 10 11 11 10 10 10 10 10 12 11 11 11 11 11 11 10 10
15 16 16 16 15 14 14 14 12 12 12 12 12 11 11 10 10 10 10 10 10 9 9 9 9 10 10 10 10 10 10 9
15 16 16 16 15 15 15 14 13 13 12 11 13 12 10 10 10 10 10 10 10 9 9 10 9 9 9 10 10 9 9 10
15 16 15 16 15 15 14 13 14 12 12 13 13 12 12 11 10 10 10 10 10 10 9 10 10 9 10 10 10 9 8 9
16 16 15 16 15 15 14 13 13 12 13 13 12 12 12 12 10 10 10 10 9 9 9 9 9 9 9 9 8 8 8 9
16 16 15 15 15 14 14 14 13 12 13 12 12 12 12 11 11 10 10 9 9 9 9 9 9 9 9 9 8 8 8 7
16 14 15 15 15 14 14 14 13 13 12 12 12 12 11 11 11 10 9 9 9 9 9 9 8 9 9 9 9 8 8 8
13 13 13 14 13 12 12 12 12 11 11 10 11 11 11 11 11 11 10 8 8 8 8 8 8 8 8 8 8 8 7 7
14 13 13 13 13 13 13 12 11 11 11 9 9 11 11 11 10 9 8 8 8 7 7 8 8 8 8 8 9 9 9 7
13 12 12 13 12 10 10 10 10 10 9 9 10 11 10 9 9 9 9 8 7 7 7 7 7 7 8 7 9 10 10 10
12 11 11 11 11 10 11 9 9 9 8 7 8 9 9 8 7 6 6 6 6 6 6 6 6 7 7 7 6 7 8 9
11 9 10 10 10 10 10 9 8 7 9 8 6 6 6 6 5 7 7 6 5 5 4 4 5 5 5 6 6 5 5 5
9 9 8 10 10 9 10 9 7 6 6 6 6 5 5 5 4 5 5 5 4 4 3 2 2 2 2 2 2 2 3 3
9 8 8 8 8 7 6 6 6 5 5 5 4 4 4 4 3 3 2 1 1 2 2 1 -0 -0 -0 -0 0 -0 -0 -0
8 8 8 7 7 6 7 7 6 5 4 3 3 3 2 1 1 1 0 -0 0 -0 -1 -1 -1 -1 -1 -1 -2 -2 -2 -3

GFSFLT2_850_temp_027.txt.gz
Temp
15 16 17 16 16 16 15 15 14 14 14 14 14 14 14 14 14 14 14 13 14 13 13 13 13 13 12 13 13 13 13 14
16 16 15 14 15 15 15 15 14 14 14 14 14 14 14 13 13 13 13 13 13 13 13 13 13 13 13 13 13 13 13 13
16 16 15 15 15 14 15 14 14 14 14 14 14 13 12 12 12 13 13 13 12 13 13 13 12 12 12 12 13 12 12 13
16 16 15 15 15 14 14 13 14 13 13 13 14 12 12 12 12 12 12 12 12 12 12 12 12 12 12 12 12 12 11 12
17 15 15 14 15 15 15 15 14 14 13 12 13 12 13 13 13 12 12 12 11 11 11 11 11 10 11 11 11 11 12 12
17 16 15 15 15 16 15 15 15 14 14 12 13 13 13 12 13 12 12 12 12 11 11 11 10 9 10 10 11 10 11 12
17 16 15 15 15 15 14 14 14 14 13 13 12 12 12 12 12 11 11 11 12 11 11 11 11 10 10 10 10 10 10 10
17 16 15 15 15 14 14 13 14 13 13 13 12 12 11 11 11 11 11 12 12 11 11 11 10 10 10 10 9 10 10 10
18 16 15 15 14 14 14 14 13 13 13 12 12 12 11 11 11 11 11 11 11 11 10 10 10 10 10 10 9 9 9 9
18 17 15 14 15 14 14 14 13 13 13 12 12 12 12 12 11 11 11 10 10 11 11 11 11 11 11 10 10 10 9 9
18 17 15 15 15 14 13 13 13 13 13 13 12 11 11 11 10 10 10 10 10 10 11 10 11 11 10 11 10 10 10 10
16 16 15 14 14 13 14 13 13 13 13 13 11 10 10 9 10 10 10 10 10 10 10 10 10 10 10 11 10 11 10 10
15 15 14 13 14 14 14 14 13 13 12 11 10 10 9 9 9 9 9 9 9 9 9 9 9 9 9 9 10 10 10 9
13 13 12 12 13 12 12 12 12 11 11 10 10 9 10 9 8 8 8 8 8 8 8 8 8 8 8 8 9 9 10 10
12 12 11 11 12 12 12 12 12 12 11 10 10 9 8 8 7 7 7 7 7 7 7 7 8 8 8 8 8 9 10 10
12 11 11 10 11 10 10 10 11 11 9 9 8 8 8 7 7 7 6 5 5 6 6 6 6 7 7 7 8 8 7 8
11 11 10 10 9 10 9 9 8 8 9 8 7 7 7 6 6 6 5 4 4 4 4 4 5 5 5 5 5 6 5 4
10 11 11 10 9 8 8 7 7 7 7 7 7 6 6 5 5 4 3 3 4 3 3 2 2 2 1 1 2 2 3 1
10 11 10 10 9 8 8 7 7 7 6 6 5 5 4 4 3 3 3 2 2 1 1 0 -0 -0 -0 -0 -0 -0 0 -0
10 10 10 9 9 8 7 7 6 5 5 4 4 3 3 3 2 1 1 1 0 -0 -1 -1 -1 -1 -1 -2 -2 -2 -2 -2

GFSFLT2_850_temp_030.txt.gz
Temp
17 17 17 17 16 16 16 16 15 15 14 14 14 14 14 14 14 14 14 14 14 14 14 14 14 13 13 13 14 14 14 14
16 16 15 15 15 16 16 15 15 15 14 14 14 13 13 13 13 13 13 13 13 13 13 13 13 13 13 13 14 14 13 13
17 16 15 15 15 15 14 14 14 14 13 14 13 13 12 13 13 13 13 13 12 13 12 12 13 13 12 12 13 13 12 12
16 16 15 15 16 15 15 14 14 13 13 13 13 13 13 13 13 13 13 12 12 12 12 12 12 11 11 12 12 12 12 13
17 16 15 15 16 15 15 15 15 14 14 13 13 13 13 13 13 13 12 12 12 12 11 11 11 11 12 11 11 12 12 12
17 16 16 16 15 15 16 15 15 15 14 13 13 13 13 13 12 12 12 12 12 12 11 11 11 11 10 10 10 11 11 11
17 16 15 15 16 15 15 15 14 14 14 13 13 13 12 12 12 12 11 12 12 12 11 11 11 11 11 11 10 10 10 10
18 17 16 15 15 15 15 14 14 14 13 13 13 13 13 13 12 12 11 12 12 12 11 11 11 10 10 10 10 10 10 10
18 17 16 15 15 14 14 14 14 14 13 13 13 13 12 12 12 12 11 11 11 11 11 11 11 11 11 11 11 10 10 10
19 18 16 15 15 15 15 14 14 13 13 13 12 12 12 11 12 11 11 11 11 10 11 10 10 10 11 11 11 11 10 10
18 18 17 16 15 15 14 14 14 14 13 13 13 12 11 11 11 10 10 10 10 10 10 10 10 10 10 10 11 11 11 10
17 17 16 15 15 14 14 14 14 14 13 13 12 12 11 11 11 11 11 10 10 10 10 10 9 9 9 9 9 10 10 10
16 15 15 14 14 14 14 14 14 13 13 12 12 11 11 11 10 10 10 9 9 9 9 9 9 8 8 8 8 9 9 9
14 13 13 13 13 13 13 12 12 12 12 11 11 10 10 9 8 8 7 7 7 7 7 7 7 7 8 8 8 8 8 9
12 12 12 12 12 12 12 12 12 12 11 11 11 10 9 8 7 7 7 6 6 6 6 6 6 6 6 7 7 7 7 7
12 11 11 11 11 11 10 10 10 10 10 9 9 8 8 7 7 6 6 6 5 5 4 5 5 5 5 5 5 5 4 5
11 11 11 11 10 9 9 8 8 8 8 8 7 7 7 6 6 5 5 5 4 3 3 3 3 3 3 3 3 4 4 3
11 11 11 11 10 9 9 8 7 7 7 7 6 6 5 4 4 4 3 3 3 3 3 2 2 1 1 1 -0 -0 -0 -1
11 10 10 10 10 9 8 8 7 7 6 5 5 4 3 3 2 2 2 2 2 2 2 2 1 0 -0 -1 -2 -1 -1 -1
11 10 9 9 8 8 7 7 6 6 5 5 4 3 2 2 2 1 1 1 1 -0 -0 -1 -0 -1 -1 -2 -2 -2 -2 -3

GFSFLT2_850_temp_033.txt.gz
Temp
17 16 16 16 16 16 16 16 15 15 15 15 14 14 14 14 13 14 13 13 13 14 14 14 14 14 14 14 14 14 14 12
16 16 16 15 15 16 16 15 15 15 15 14 13 14 13 13 13 13 13 12 12 13 13 13 13 13 13 13 13 14 13 12
16 16 15 15 15 15 15 15 15 14 14 13 13 13 13 13 13 13 13 12 12 12 12 12 12 12 12 12 12 12 12 12
15 15 15 15 15 15 15 15 14 14 14 13 13 13 13 12 12 12 12 12 12 12 12 12 12 12 12 12 12 12 12 12
16 16 15 15 15 15 15 14 14 14 14 13 13 13 13 13 12 12 12 12 12 12 12 11 11 11 11 11 11 11 11 12
17 17 16 15 15 15 15 14 14 14 14 14 14 13 13 13 13 12 12 12 12 12 11 12 11 11 11 11 11 11 11 11
17 17 17 16 15 15 15 15 14 14 14 14 13 14 14 13 13 13 12 12 11 12 12 11 11 11 11 11 11 11 11 11
18 17 17 17 15 15 16 15 14 14 14 13 14 14 14 13 13 13 12 11 11 11 11 11 11 11 11 11 10 10 10 10
18 17 17 16 16 15 15 14 14 14 13 13 14 13 13 13 13 12 11 11 11 11 11 11 10 10 10 10 10 10 10 10
18 17 16 15 16 15 15 14 14 14 13 13 13 12 12 12 12 12 12 12 12 12 11 10 10 10 10 10 10 10 10 10
17 17 16 14 13 14 14 14 14 14 13 13 13 12 12 12 12 12 11 10 10 9 10 9 9 9 9 9 9 9 10 10
17 16 15 14 15 14 14 14 13 13 13 13 12 12 12 12 11 11 10 9 9 9 9 9 9 8 8 8 8 8 8 8
17 16 14 14 13 13 13 13 13 13 12 12 12 11 10 10 10 9 8 8 8 7 7 8 7 7 7 7 7 7 8 8
16 16 15 14 13 13 13 13 13 12 12 11 10 10 9 9 8 8 7 7 7 6 6 6 6 6 5 6 6 6 7 7
14 14 13 13 13 12 12 12 11 11 11 10 9 8 8 8 7 7 7 6 6 6 5 5 5 4 4 4 4 4 3 5
12 11 11 11 11 11 11 10 10 10 9 9 8 8 8 7 7 6 6 5 5 5 4 3 3 3 3 3 2 1 0 1
11 11 11 10 10 10 9 9 8 8 7 7 7 7 6 6 6 6 4 3 3 3 2 2 2 2 2 2 1 1 1 0
11 11 10 10 9 9 8 8 7 7 7 6 6 5 5 4 4 3 2 2 2 2 1 1 1 1 1 0 0 -1 -2 -2
11 10 10 9 9 9 8 7 7 6 6 5 5 5 4 4 3 2 2 1 1 0 0 0 0 0 0 -0 -1 -1 -3 -3
11 10 10 9 8 8 7 6 6 5 5 5 4 4 3 3 2 1 1 0 -0 -1 -1 -1 -0 -0 -1 -2 -2 -3 -3 -3

GFSFLT2_850_temp_036.txt.gz
Temp
17 17 17 17 17 17 16 16 15 15 15 15 15 15 14 14 14 14 13 13 14 13 13 13 14 14 14 14 14 14 13 12
17 16 16 16 16 16 16 16 15 15 15 15 14 15 14 13 13 13 13 13 13 12 12 13 13 13 13 12 13 13 12 12
16 16 16 15 15 15 15 15 15 15 15 15 15 14 14 13 13 13 13 12 12 12 12 12 12 12 12 12 12 12 12 12
16 16 16 15 15 15 14 14 14 14 14 14 14 14 13 13 13 13 13 12 12 12 12 12 12 12 12 11 11 11 11 11
16 16 15 15 15 15 14 14 14 14 14 13 13 14 13 13 13 13 13 13 13 12 12 12 12 12 12 11 11 11 11 11
16 16 16 15 15 15 15 14 14 14 14 13 13 13 13 13 13 13 13 13 13 12 12 11 11 11 11 11 11 11 11 11
16 17 17 16 15 15 15 15 14 14 14 13 13 13 13 13 13 13 12 12 12 12 11 11 11 11 11 11 11 11 11 10
17 17 17 17 17 16 15 15 14 14 14 14 13 13 13 13 13 12 12 12 11 11 11 11 11 11 11 10 10 10 10 10
18 17 16 16 16 16 15 15 14 14 14 13 13 13 13 13 12 13 12 11 11 11 11 11 10 10 10 10 10 10 10 10
17 16 16 16 16 15 14 14 14 14 14 13 13 13 13 13 12 11 11 11 11 11 11 10 10 9 9 9 9 9 9 9
16 16 16 16 15 14 14 14 13 13 13 13 12 12 12 11 11 10 11 11 10 10 9 9 8 8 8 8 9 9 9 8
16 16 15 15 14 14 13 13 13 13 12 12 11 11 11 11 10 10 10 10 10 9 9 8 8 7 7 8 8 8 8 8
14 13 12 12 11 11 12 12 12 12 11 11 10 10 10 9 9 9 9 8 8 7 7 7 7 7 7 7 8 8 7 7
13 12 12 12 13 12 12 12 12 11 10 10 9 9 9 9 9 8 8 7 7 6 6 6 6 5 5 4 4 4 5 5
13 12 12 12 12 11 11 11 11 11 10 10 9 9 8 8 7 6 6 6 6 6 5 5 4 3 3 2 2 2 1 2
13 12 11 11 11 12 12 11 10 9 9 9 8 8 7 7 6 6 6 5 5 3 2 2 2 2 2 2 2 1 0 0
12 12 11 11 11 10 10 9 9 8 7 7 7 6 6 6 5 5 4 3 2 2 1 1 1 0 0 0 0 0 0 -1
11 11 11 11 10 10 10 9 9 8 7 7 6 5 5 4 4 3 2 2 1 1 0 -0 -0 -0 -0 -0 -1 -2 -3 -3
11 11 10 10 10 9 8 8 7 6 6 6 5 5 4 3 2 2 1 1 0 -0 -0 -1 -1 -1 -1 -1 -2 -2 -3 -3
11 11 10 9 9 8 8 7 6 6 5 5 4 3 2 2 1 1 0 -1 -1 -1 -1 -2 -2 -2 -2 -2 -2 -3 -3 -3

GFSFLT2_850_temp_042.txt.gz
Temp
16 16 17 16 17 16 16 16 15 15 15 15 15 15 14 14 14 14 14 13 13 13 13 13 13 12 12 12 12 12 12 12
17 17 17 16 16 16 16 16 15 15 15 14 14 14 14 14 14 14 14 13 13 13 13 13 13 12 12 12 12 12 12 11
16 16 16 16 16 16 16 16 15 15 14 14 14 14 13 13 13 13 13 13 13 12 13 13 12 12 12 12 12 12 11 11
16 16 16 16 15 15 15 15 15 15 14 14 13 14 13 13 13 13 12 12 12 12 12 12 12 12 11 11 11 11 11 11
17 16 15 15 15 15 15 15 14 14 14 14 14 13 13 13 13 13 12 12 12 12 11 11 11 11 11 11 11 11 11 11
16 16 16 15 15 15 14 14 14 14 14 14 13 13 13 13 13 12 12 12 12 12 12 11 11 11 10 10 10 10 10 10
16 16 15 15 14 14 14 14 14 13 13 14 13 13 13 13 13 12 12 12 12 12 11 11 11 11 11 10 10 10 10 9
16 15 15 14 14 14 14 14 14 13 13 13 13 12 12 12 12 12 12 12 11 11 11 11 10 10 10 10 10 10 9 9
16 15 14 14 13 13 13 13 14 13 13 13 12 12 12 12 11 11 11 11 11 10 10 10 10 10 10 9 9 10 10 9
15 15 14 13 13 13 13 13 13 13 13 13 12 12 11 11 11 11 11 10 10 10 10 9 9 9 8 9 9 9 8 8
15 14 13 12 12 12 11 12 12 12 12 13 12 12 12 11 11 10 9 9 8 9 8 8 8 8 7 7 8 8 8 8
15 13 12 11 11 10 10 10 11 12 12 11 11 11 10 10 10 9 8 8 8 8 7 7 6 6 6 6 6 7 7 6
12 12 12 11 10 10 10 11 11 11 11 11 10 10 10 9 9 8 8 7 7 6 5 5 6 5 5 5 5 5 4 4
13 13 12 12 11 11 11 11 11 11 11 10 10 9 9 8 7 7 6 6 5 5 5 4 4 4 3 3 3 3 3 3
13 13 12 12 12 12 11 11 11 10 9 9 8 8 7 7 6 6 5 5 4 4 4 3 3 3 2 1 0 1 0 1
13 12 12 12 12 11 11 11 10 9 8 8 7 7 6 6 5 5 4 3 3 3 3 2 2 1 1 0 -0 -1 -2 -2
12 12 12 11 11 10 10 9 9 8 7 7 6 6 5 5 4 3 3 2 2 2 1 0 -0 -1 -1 -1 -1 -1 -2 -3
11 11 10 10 10 9 9 9 8 7 6 6 5 5 4 4 3 2 2 2 2 0 -0 -1 -2 -2 -2 -2 -2 -4 -3 -3
10 10 10 10 9 8 8 7 7 6 5 5 5 4 3 3 2 2 1 1 1 0 -1 -2 -2 -2 -2 -3 -3 -3 -3 -4
10 9 9 9 8 7 7 6 5 5 4 4 4 3 3 3 2 1 1 1 0 -1 -2 -2 -2 -2 -3 -3 -3 -3 -3 -4

GFSFLT2_850_temp_045.txt.gz
Temp
15 16 16 16 16 16 16 15 15 15 15 15 14 14 14 14 14 13 13 13 13 13 13 13 12 13 13 12 12 12 12 12
16 16 16 16 16 16 15 15 15 15 14 14 14 14 14 14 14 13 13 13 13 13 13 12 12 12 12 12 12 12 12 12
16 16 16 16 16 15 15 15 15 14 14 14 14 14 14 14 13 13 13 13 13 12 12 12 12 12 12 12 12 12 12 12
16 16 16 16 15 15 15 15 15 14 14 14 14 14 13 13 13 13 12 12 12 12 12 12 12 12 11 11 11 12 12 12
16 15 15 15 14 15 14 14 14 14 13 13 13 13 13 13 13 12 12 12 12 12 12 12 11 11 11 11 11 11 11 11
15 15 14 14 14 14 13 13 13 13 13 13 13 13 12 12 12 12 12 12 12 12 12 11 11 11 11 11 10 10 10 10
15 15 14 14 13 13 13 13 13 13 13 12 12 12 12 12 12 12 12 12 12 12 11 11 11 11 10 10 10 10 10 10
15 15 14 13 13 13 13 13 13 13 13 13 13 12 12 11 11 12 12 12 12 11 11 10 10 10 10 10 10 9 9 9
15 14 14 13 13 13 13 13 13 13 13 13 13 12 12 11 11 11 11 11 10 10 9 9 9 9 9 9 9 9 9 9
15 14 13 13 13 13 12 13 13 12 12 12 12 12 12 11 10 10 10 9 9 9 9 8 8 8 8 8 8 8 8 8
15 14 12 13 13 13 10 11 10 10 11 11 11 11 10 10 10 9 9 9 8 8 8 7 7 7 7 7 7 7 7 7
14 12 11 11 12 10 11 10 10 11 11 11 11 11 10 10 9 9 8 7 7 6 6 6 6 6 6 6 6 6 7 7
12 13 11 12 10 11 10 10 11 11 11 10 10 10 9 9 8 8 7 6 6 6 5 5 5 4 4 3 4 4 4 4
12 12 11 11 11 10 10 11 11 10 10 9 9 8 8 7 7 6 6 5 5 4 4 4 4 4 3 2 4 3 2 2
13 12 12 12 11 11 11 11 10 10 9 9 8 7 7 6 6 5 5 4 4 3 3 3 3 2 2 0 2 3 0 1
13 12 12 11 11 11 10 10 10 9 8 8 7 6 6 5 5 4 4 3 3 3 2 2 1 -0 -0 -1 -1 -2 -2 -1
12 12 11 11 11 10 10 9 8 7 7 6 6 5 5 4 4 4 3 3 2 2 2 1 -0 -1 -2 -2 -1 -3 -3 -3
11 11 11 10 10 9 9 8 7 6 6 5 5 5 4 4 3 3 2 2 1 1 0 -0 -1 -2 -2 -3 -3 -3 -3 -3
10 10 9 9 9 8 8 7 6 6 5 5 4 4 4 3 2 2 1 1 0 0 -0 -1 -2 -2 -2 -3 -3 -3 -3 -3
10 9 9 9 8 7 6 6 5 5 4 4 4 3 3 2 2 1 1 0 0 -0 -1 -1 -2 -2 -3 -3 -3 -3 -3 -3

GFSFLT2_850_temp_048.txt.gz
Temp
13 14 15 15 15 15 15 14 14 14 14 15 15 14 14 14 13 13 13 13 13 13 13 13 13 13 13 13 13 13 12 13
13 13 14 15 15 15 14 14 14 14 15 14 14 14 13 13 13 13 13 13 13 13 12 12 13 13 13 13 13 12 12 12
14 13 14 15 13 14 14 14 14 14 14 14 13 12 12 13 13 13 13 13 13 13 13 12 12 12 12 12 12 12 12 12
15 15 15 15 13 14 14 14 13 13 13 13 12 13 12 12 13 12 12 13 12 12 12 12 12 11 11 11 11 11 12 11
15 15 15 14 14 13 12 12 13 13 13 13 13 12 12 11 11 11 11 12 11 11 11 11 12 11 10 11 11 11 11 11
15 15 14 14 13 13 13 12 13 13 13 13 12 12 12 12 11 11 11 11 12 11 11 12 11 11 11 11 10 10 10 10
15 14 14 14 13 13 13 13 12 13 12 13 13 12 12 12 11 11 11 11 10 10 10 10 10 10 10 10 9 9 8 9
14 14 14 13 13 13 13 12 12 12 12 12 12 12 12 12 12 11 11 11 10 10 10 9 9 9 9 8 9 8 8 8
14 13 13 13 13 13 12 12 12 12 12 12 12 12 12 12 11 10 10 10 10 9 9 8 8 8 8 8 8 8 8 7
12 14 13 13 12 11 11 11 12 12 11 11 11 11 11 11 10 10 9 9 9 8 7 7 7 7 7 7 7 7 7 6
12 14 12 11 11 10 11 12 10 10 11 11 11 11 11 10 9 9 8 7 7 6 6 5 6 6 6 6 6 7 6 7
13 13 12 11 11 11 10 9 10 11 11 11 11 10 10 9 9 8 7 6 5 6 5 5 5 5 5 5 5 5 5 6
13 12 12 12 11 11 10 10 10 11 11 10 10 9 9 9 7 7 6 5 5 4 4 4 4 4 3 5 5 6 4 5
12 11 12 11 11 10 10 10 10 9 10 10 9 9 8 7 7 6 6 4 4 3 3 3 4 3 3 3 6 6 6 4
11 11 11 11 11 11 11 11 10 9 9 8 8 8 7 6 6 6 5 4 3 3 2 2 2 3 2 2 3 4 3 3
11 11 11 12 11 10 10 10 10 8 7 7 6 6 6 6 5 5 4 3 2 2 2 1 1 2 2 2 1 1 -0 1
10 10 9 10 10 9 9 9 8 7 7 7 5 5 5 5 4 3 2 2 2 1 1 0 0 0 1 1 1 0 0 -1
11 10 10 10 10 9 9 8 7 7 6 6 5 5 4 3 3 3 2 2 1 1 0 -0 -0 -1 -0 -1 -1 -2 -2 -2
10 9 9 10 9 8 8 7 6 5 5 5 5 5 4 4 3 2 2 1 0 0 -0 -1 -1 -1 -1 -1 -2 -2 -2 -2
9 9 9 9 8 7 6 5 5 5 5 4 4 4 3 3 2 2 1 1 0 -0 -1 -1 -1 -2 -2 -2 -2 -2 -3 -3